Location: Mexico
(19.4000°N, 99.1500°W)
Time: 07:45:45
(UTC-06:00)

ISS - Pass Details

Date: 19 September 2019
Orbit: 411 x 421 km, 51.6° (Epoch: 18 September)

Event Time Altitude Azimuth Distance (km) Brightness Sun altitude
Exits shadow 05:23:46 14° 203° (SSW) 1,253 -1.6 -15.2°
Drops below altitude 10° 05:24:40 10° 190° (S) 1,482 -1.2 -15.0°
Sets 05:27:12 0° 170° (S) 2,344 0.1 -14.4°
